Location: Colebrook
(42.0017°N, 73.0973°W)
Time: 01:37:25
(UTC-05:00)

Amateur Radio Satellites - All Passes

Search period start: 21 November 2017 01:07
Search period end: 22 November 2017 01:07
Location: Colebrook, 42.0017°N, 73.0973°W

Satellite Date Start Highest point End Downlink Frequencies (MHz)
Time Altitude Azimuth
DUCHIFAT 1 21 Nov 01:22:43 01:25:10 15° 296° (WNW) 01:27:38 145.980
RS-15 21 Nov 01:23:07 01:33:46 34° 30° (NNE) 01:43:55 29.354- 29.394
ISS 21 Nov 01:26:58 01:29:31 20° 16° (NNE) 01:32:03 437.550
50 SAT 21 Nov 01:29:45 01:32:02 18° 265° (W) 01:34:20 437.505
EO-79 21 Nov 01:31:08 01:31:51 10° 299° (WNW) 01:32:36 145.935-145.965
BEESAT 3 21 Nov 01:33:12 01:35:40 16° 110° (ESE) 01:38:08 437.485
NANOSAT C BR1 21 Nov 01:34:24 01:35:22 11° 299° (WNW) 01:36:19 145.865
BEESAT 21 Nov 01:38:36 01:42:43 30° 67° (ENE) 01:46:50 436.000
DX 1 21 Nov 01:46:18 01:49:39 21° 266° (W) 01:53:01 434.975-435.025
ITUPSAT 1 21 Nov 01:47:47 01:52:07 35° 69° (ENE) 01:56:28 437.325
Oscar 19 21 Nov 01:49:45 01:54:54 71° 286° (WNW) 02:00:02 437.125/150
M-CUBED/EXP-1 PRIME 21 Nov 01:56:02 01:59:37 22° 99° (E) 02:03:14 437.505
PCSat 21 Nov 01:59:59 02:03:41 18° 318° (NW) 02:07:24 145.827
MOZHAYETS 4 21 Nov 02:03:18 02:07:49 64° 74° (ENE) 02:12:20
Gurwin Techsat 1B 21 Nov 02:12:14 02:17:30 63° 288° (WNW) 02:22:44 435.225
AO-7 21 Nov 02:14:34 02:21:06 25° 93° (E) 02:27:35 .
CUBESAT XI-V 21 Nov 02:15:16 02:18:36 20° 65° (ENE) 02:22:00 437.345
BUGSAT 1 21 Nov 02:16:43 02:19:02 15° 296° (WNW) 02:21:21 437.445
nSIGHT-1 21 Nov 02:20:11 02:23:15 43° 28° (NNE) 02:26:19 .
UKube-1 21 Nov 02:31:14 02:32:42 11° 270° (W) 02:34:11 .
BEESAT 2 21 Nov 02:42:50 02:46:09 25° 114° (ESE) 02:49:31 435.950
ISS 21 Nov 03:03:06 03:06:22 85° 31° (NNE) 03:09:38 437.550
BEESAT 3 21 Nov 03:08:58 03:12:49 47° 307° (NW) 03:16:43 437.485
BEESAT 21 Nov 03:16:14 03:20:25 30° 264° (W) 03:24:37 436.000
ITUPSAT 1 21 Nov 03:26:03 03:29:59 25° 265° (W) 03:33:55 437.325
AO-85 21 Nov 03:27:43 03:31:01 27° 114° (ESE) 03:34:26 145.980
M-CUBED/EXP-1 PRIME 21 Nov 03:29:48 03:34:03 40° 294° (WNW) 03:38:23 437.505
RS-15 21 Nov 03:36:04 03:48:03 89° 58° (ENE) 03:59:18 29.354- 29.394
ITAMSAT 1 21 Nov 03:41:28 03:46:43 77° 103° (ESE) 03:51:54 435.822/435.867
MOZHAYETS 4 21 Nov 03:43:22 03:45:22 13° 270° (W) 03:47:23
CUBESAT XI-V 21 Nov 03:51:20 03:55:40 42° 262° (W) 04:00:04 437.345
nSIGHT-1 21 Nov 03:56:45 03:59:19 22° 225° (SW) 04:01:53 .
KKS-1 21 Nov 03:57:12 04:01:34 55° 72° (ENE) 04:05:58 437.445
AO-7 21 Nov 04:06:12 04:14:31 74° 292° (WNW) 04:22:50 .
BEESAT 2 21 Nov 04:20:09 04:23:45 31° 311° (NW) 04:27:25 435.950
STARS 21 Nov 04:22:20 04:26:29 40° 70° (ENE) 04:30:38 437.465
DOVE 4 21 Nov 04:25:48 04:30:42 40° 96° (E) 04:35:20 437.250
YUBILEINY 21 Nov 04:26:32 04:34:12 36° 85° (E) 04:41:55 435.215
ISS 21 Nov 04:41:21 04:42:23 11° 231° (SW) 04:43:24 437.550
XW-2B 21 Nov 04:51:01 04:51:48 10° 90° (E) 04:52:35 145.730 - 145.750
SO-50 21 Nov 05:00:58 05:04:23 20° 42° (NE) 05:07:49 436.795
NUDT-PHONESAT 21 Nov 05:06:36 05:07:39 11° 91° (E) 05:08:41 437.300
AO-85 21 Nov 05:07:58 05:11:20 27° 313° (NW) 05:14:53 145.980
CUTE-I 21 Nov 05:12:48 05:16:44 20° 93° (E) 05:20:37 437.470
XW-2C 21 Nov 05:14:40 05:17:39 21° 94° (E) 05:20:36 145.795 - 145.815
LilacSat-2 21 Nov 05:16:16 05:19:26 24° 95° (E) 05:22:36 437.200
ITAMSAT 1 21 Nov 05:22:40 05:25:30 15° 301° (WNW) 05:28:20 435.822/435.867
XW-2F 21 Nov 05:25:20 05:28:35 26° 96° (E) 05:31:49 145.980 - 146.000
KKS-1 21 Nov 05:35:59 05:38:27 14° 269° (W) 05:40:54 437.445
RS-15 21 Nov 05:50:21 05:58:46 24° 260° (W) 06:06:56 29.354- 29.394
FO-29 21 Nov 05:51:03 05:55:04 16° 52° (NE) 05:59:19 435.910
KAITUO 1B 21 Nov 05:53:14 05:56:52 44° 99° (E) 06:00:29 145.475/437.950
STARS 21 Nov 05:59:47 06:02:57 19° 266° (W) 06:06:08 437.465
AO-7 21 Nov 06:00:47 06:05:54 18° 312° (NW) 06:11:03 .
DOVE 4 21 Nov 06:03:51 06:08:06 26° 294° (WNW) 06:12:11 437.250
XW-2D 21 Nov 06:07:40 06:11:28 80° 285° (WNW) 06:15:16 145.860 - 145.880
CUBEBUG 2 21 Nov 06:09:53 06:11:38 12° 90° (E) 06:13:21 437.445
HO-68 21 Nov 06:13:37 06:20:01 33° 96° (E) 06:26:19 435.675
STRAND 1 21 Nov 06:18:33 06:23:40 70° 73° (ENE) 06:28:49 437.568
YUBILEINY 21 Nov 06:22:14 06:30:40 51° 285° (WNW) 06:39:13 435.215
XW-2B 21 Nov 06:22:34 06:26:17 54° 286° (WNW) 06:30:00 145.730 - 145.750
NUDT-PHONESAT 21 Nov 06:38:10 06:41:45 49° 286° (WNW) 06:45:21 437.300
SO-50 21 Nov 06:40:38 06:45:14 64° 240° (WSW) 06:49:54 436.795
XW-2C 21 Nov 06:48:35 06:51:47 26° 290° (WNW) 06:55:00 145.795 - 145.815
CUTE 1.7 + AOD 2 21 Nov 06:49:09 06:53:23 63° 100° (E) 06:57:37 437.475
LilacSat-2 21 Nov 06:50:30 06:53:36 24° 291° (WNW) 06:56:43 437.200
CUTE-I 21 Nov 06:51:51 06:57:04 53° 289° (WNW) 07:02:14 437.470
ZACube-1 21 Nov 06:57:33 06:59:14 12° 90° (E) 07:00:56 437.345
XW-2F 21 Nov 06:59:37 07:02:32 21° 292° (WNW) 07:05:28 145.980 - 146.000
UWE-3 21 Nov 07:05:24 07:09:02 29° 96° (E) 07:12:39 435.000/436.395/437.385
SEEDS 21 Nov 07:19:50 07:24:06 85° 99° (E) 07:28:21 437.485
PCSat 21 Nov 07:19:50 07:22:43 14° 38° (NE) 07:25:38 145.827
AAUSAT CUBESAT 2 21 Nov 07:27:02 07:31:03 43° 98° (E) 07:35:01 437.432
KAITUO 1B 21 Nov 07:28:35 07:30:27 13° 295° (WNW) 07:32:19 145.475/437.950
FO-29 21 Nov 07:32:09 07:38:45 78° 73° (ENE) 07:46:12 435.910
CUBEBUG 2 21 Nov 07:44:31 07:48:36 53° 286° (WNW) 07:52:36 437.445
UNISAT 6 21 Nov 07:46:43 07:49:53 19° 65° (ENE) 07:53:02 437.425
AO-73 21 Nov 07:46:49 07:50:41 38° 98° (E) 07:54:36 145.935
TIGRISAT 21 Nov 07:51:03 07:54:15 19° 66° (ENE) 07:57:25 435.000
STRAND 1 21 Nov 08:00:38 08:03:20 14° 270° (W) 08:06:02 437.568
HO-68 21 Nov 08:01:03 08:07:53 49° 294° (WNW) 08:14:41 435.675
XW-2A 21 Nov 08:01:31 08:04:49 52° 285° (WNW) 08:08:05 145.665 - 145.685
Oscar 11 21 Nov 08:03:15 08:07:21 40° 98° (E) 08:11:26 .
CUTE 1.7 + AOD 2 21 Nov 08:26:49 08:28:41 13° 297° (WNW) 08:30:33 437.475
ZACube-1 21 Nov 08:31:48 08:35:51 54° 286° (WNW) 08:39:54 437.345
UWE-3 21 Nov 08:42:05 08:45:22 23° 292° (WNW) 08:48:37 435.000/436.395/437.385
PRISM 21 Nov 08:46:14 08:49:40 26° 68° (ENE) 08:53:07 437.425
PCSat 21 Nov 09:01:41 09:07:07 72° 59° (ENE) 09:12:31 145.827
AAUSAT CUBESAT 2 21 Nov 09:03:26 09:06:09 17° 295° (WNW) 09:08:51 437.432
EO-88 21 Nov 09:03:42 09:06:10 17° 93° (E) 09:08:38 145.990 - 145.960
Max Valier Satellite 21 Nov 09:04:49 09:07:55 25° 96° (E) 09:11:00 145.860
AIST 2D 21 Nov 09:11:06 09:12:16 11° 65° (ENE) 09:13:27 435.315
FO-29 21 Nov 09:20:04 09:24:40 19° 274° (W) 09:29:38 435.910
UNISAT 6 21 Nov 09:21:53 09:26:16 45° 261° (W) 09:30:35 437.425
AO-73 21 Nov 09:23:50 09:26:39 18° 294° (WNW) 09:29:28 145.935
TIGRISAT 21 Nov 09:26:15 09:30:37 44° 261° (W) 09:34:55 435.000
FALCONSAT 3 21 Nov 09:31:53 09:34:22 17° 161° (SSE) 09:36:50 435.103
DELFI C3 21 Nov 09:32:47 09:36:48 87° 99° (E) 09:40:48 145.870
Oscar 11 21 Nov 09:40:09 09:43:11 19° 294° (WNW) 09:46:14 .
BEESAT 3 21 Nov 09:48:47 09:50:54 14° 40° (NE) 09:53:01 437.485
QB50P2 21 Nov 09:49:33 09:52:14 17° 64° (ENE) 09:54:55 145.880/145.840
PRISM 21 Nov 10:21:23 10:24:50 26° 264° (W) 10:28:21 437.425
EO-88 21 Nov 10:36:38 10:39:51 30° 289° (WNW) 10:43:03 145.990 - 145.960
DUCHIFAT 1 21 Nov 10:37:39 10:41:31 36° 71° (ENE) 10:45:23 145.980
Max Valier Satellite 21 Nov 10:38:50 10:41:35 20° 291° (WNW) 10:44:21 145.860
AIST 2D 21 Nov 10:41:43 10:45:01 43° 261° (W) 10:48:22 435.315
EO-79 21 Nov 10:44:44 10:48:54 57° 74° (ENE) 10:53:04 145.935-145.965
PCSat 21 Nov 10:46:40 10:49:52 16° 256° (WSW) 10:53:02 145.827
NANOSAT C BR1 21 Nov 10:47:58 10:52:06 55° 73° (ENE) 10:56:14 145.865
ESTCUBE 1 21 Nov 10:51:42 10:55:49 33° 97° (E) 10:59:55 437.505/2401.250
BEESAT 2 21 Nov 10:59:42 11:02:46 20° 44° (NE) 11:05:48 435.950
POLYITAN 1 21 Nov 11:00:00 11:04:15 86° 73° (ENE) 11:08:30 437.675
LO-87 21 Nov 11:00:26 11:03:57 60° 101° (E) 11:07:26 145.935 - 145.965
FALCONSAT 3 21 Nov 11:09:40 11:12:55 29° 176° (S) 11:16:08 435.103
QB50P2 21 Nov 11:23:33 11:27:38 46° 261° (W) 11:31:44 145.880/145.840
BEESAT 3 21 Nov 11:24:59 11:28:56 74° 239° (WSW) 11:32:47 437.485
Oscar 19 21 Nov 11:29:11 11:33:07 23° 64° (ENE) 11:37:04 437.125/150
BUGSAT 1 21 Nov 11:29:51 11:33:39 34° 70° (ENE) 11:37:25 437.445
Gurwin Techsat 1B 21 Nov 11:54:49 11:59:18 29° 66° (ENE) 12:03:49 435.225
AO-85 21 Nov 11:56:59 12:01:15 34° 49° (NE) 12:05:46 145.980
SPROUT 21 Nov 12:07:59 12:12:10 54° 100° (E) 12:16:18 437.525
DUCHIFAT 1 21 Nov 12:14:15 12:17:17 19° 267° (W) 12:20:19 145.980
EO-79 21 Nov 12:23:13 12:25:00 12° 270° (W) 12:26:47 145.935-145.965
NANOSAT C BR1 21 Nov 12:26:12 12:28:07 13° 269° (W) 12:30:02 145.865
ESTCUBE 1 21 Nov 12:28:47 12:32:26 24° 293° (WNW) 12:36:05 437.505/2401.250
BEESAT 2 21 Nov 12:36:52 12:40:41 43° 243° (WSW) 12:44:28 435.950
O/OREOS (USA 219) 21 Nov 12:41:20 12:45:37 40° 106° (ESE) 12:49:55 437.305
M-CUBED/EXP-1 PRIME 21 Nov 12:42:21 12:45:14 23° 62° (ENE) 12:48:18 437.505
50 SAT 21 Nov 12:46:14 12:48:26 17° 95° (E) 12:50:37 437.505
VELOX 1 21 Nov 12:47:45 12:52:14 89° 286° (WNW) 12:56:41 145.980
FALCONSAT 3 21 Nov 12:48:31 12:51:31 23° 192° (SSW) 12:54:31 435.103
BUGSAT 1 21 Nov 13:05:55 13:09:03 20° 266° (W) 13:12:11 437.445
Oscar 19 21 Nov 13:07:14 13:12:07 46° 261° (W) 13:17:03 437.125/150
AO-7 21 Nov 13:13:54 13:21:15 38° 59° (ENE) 13:28:39 .
ITAMSAT 1 21 Nov 13:22:48 13:26:05 17° 60° (ENE) 13:29:23 435.822/435.867
DX 1 21 Nov 13:32:38 13:37:00 62° 102° (ESE) 13:41:19 434.975-435.025
Gurwin Techsat 1B 21 Nov 13:34:11 13:39:05 38° 262° (W) 13:44:02 435.225
AO-85 21 Nov 13:37:22 13:41:38 33° 245° (WSW) 13:46:09 145.980
NO-84 21 Nov 13:38:44 13:40:36 14° 122° (ESE) 13:42:33 435.350 FM
SPROUT 21 Nov 13:45:17 13:47:35 14° 297° (WNW) 13:49:52 437.525
MOZHAYETS 4 21 Nov 13:59:17 14:01:43 14° 90° (E) 14:04:10
UKube-1 21 Nov 14:14:15 14:18:36 74° 285° (WNW) 14:22:53 .
M-CUBED/EXP-1 PRIME 21 Nov 14:16:36 14:19:33 24° 260° (W) 14:22:41 437.505
50 SAT 21 Nov 14:17:54 14:20:29 22° 291° (WNW) 14:23:04 437.505
O/OREOS (USA 219) 21 Nov 14:21:32 14:25:10 23° 304° (NW) 14:28:50 437.305
YUBILEINY 21 Nov 14:36:22 14:42:03 18° 60° (ENE) 14:47:42 435.215
ITAMSAT 1 21 Nov 14:59:47 15:04:59 68° 258° (WSW) 15:10:13 435.822/435.867
AO-7 21 Nov 15:05:43 15:13:44 53° 258° (WSW) 15:21:50 .
DX 1 21 Nov 15:10:27 15:12:39 14° 298° (WNW) 15:14:49 434.975-435.025
NO-84 21 Nov 15:13:41 15:17:22 72° 321° (NW) 15:21:22 435.350 FM
BEESAT 21 Nov 15:14:59 15:19:44 65° 102° (ESE) 15:24:26 436.000
ITUPSAT 1 21 Nov 15:24:52 15:29:39 80° 103° (ESE) 15:34:24 437.325
DOVE 4 21 Nov 15:30:43 15:35:26 41° 70° (ENE) 15:40:20 437.250
MOZHAYETS 4 21 Nov 15:34:44 15:39:13 57° 287° (WNW) 15:43:41
CUBESAT XI-V 21 Nov 15:46:58 15:51:28 45° 99° (E) 15:55:58 437.345
RS-15 21 Nov 15:57:21 16:00:09 11° 92° (E) 16:02:57 29.354- 29.394
XW-2C 21 Nov 15:57:49 15:59:10 12° 64° (ENE) 16:00:32 145.795 - 145.815
LilacSat-2 21 Nov 15:59:40 16:01:32 13° 65° (ENE) 16:03:25 437.200
XW-2F 21 Nov 16:07:30 16:09:30 14° 65° (ENE) 16:11:29 145.980 - 146.000
YUBILEINY 21 Nov 16:31:24 16:40:20 83° 82° (E) 16:49:10 435.215
KAITUO 1B 21 Nov 16:33:47 16:36:38 22° 68° (ENE) 16:39:30 145.475/437.950
CUTE-I 21 Nov 16:34:36 16:39:25 35° 67° (ENE) 16:44:16 437.470
HO-68 21 Nov 16:43:18 16:49:05 27° 59° (ENE) 16:54:54 435.675
XW-2D 21 Nov 16:48:48 16:52:24 48° 74° (ENE) 16:56:02 145.860 - 145.880
NO-84 21 Nov 16:52:29 16:55:21 19° 341° (NNW) 16:58:20 435.350 FM
BEESAT 21 Nov 16:54:17 16:56:57 15° 299° (WNW) 16:59:38 436.000
XW-2B 21 Nov 17:03:32 17:07:13 72° 77° (ENE) 17:10:59 145.730 - 145.750
ITUPSAT 1 21 Nov 17:04:49 17:06:48 13° 301° (WNW) 17:08:47 437.325
CUBEBUG 2 21 Nov 17:08:20 17:10:31 13° 63° (ENE) 17:12:40 437.445
DOVE 4 21 Nov 17:09:08 17:13:13 25° 268° (W) 17:17:28 437.250
NUDT-PHONESAT 21 Nov 17:16:50 17:20:28 72° 76° (ENE) 17:24:07 437.300
KKS-1 21 Nov 17:23:54 17:28:23 79° 284° (WNW) 17:32:49 437.445
CUBESAT XI-V 21 Nov 17:25:07 17:28:30 20° 295° (WNW) 17:31:54 437.345
XW-2C 21 Nov 17:29:16 17:32:54 51° 260° (W) 17:36:34 145.795 - 145.815
LilacSat-2 21 Nov 17:31:50 17:35:25 44° 261° (W) 17:39:02 437.200
XW-2F 21 Nov 17:39:44 17:43:14 40° 262° (W) 17:46:47 145.980 - 146.000
CUTE 1.7 + AOD 2 21 Nov 17:41:50 17:45:49 45° 73° (ENE) 17:49:51 437.475
STARS 21 Nov 17:46:58 17:51:23 74° 102° (ESE) 17:55:44 437.465
ZACube-1 21 Nov 17:54:29 17:55:53 11° 62° (ENE) 17:57:16 437.345
RS-15 21 Nov 17:57:56 18:09:48 58° 113° (ESE) 18:21:38 29.354- 29.394
UWE-3 21 Nov 18:02:33 18:06:14 26° 69° (ENE) 18:09:53 435.000/436.395/437.385
KAITUO 1B 21 Nov 18:07:28 18:10:30 24° 265° (W) 18:13:32 145.475/437.950
SEEDS 21 Nov 18:11:22 18:15:27 58° 74° (ENE) 18:19:34 437.485
CUTE-I 21 Nov 18:14:44 18:19:27 31° 264° (W) 18:24:12 437.470
AAUSAT CUBESAT 2 21 Nov 18:17:22 18:20:55 29° 70° (ENE) 18:24:32 437.432
XW-2D 21 Nov 18:25:40 18:26:51 11° 270° (W) 18:28:02 145.860 - 145.880
HO-68 21 Nov 18:29:10 18:36:17 64° 257° (WSW) 18:43:28 435.675
STRAND 1 21 Nov 18:29:21 18:33:21 23° 93° (E) 18:37:20 437.568
YUBILEINY 21 Nov 18:30:00 18:35:58 21° 282° (WNW) 18:41:55 435.215
NO-84 21 Nov 18:31:56 18:34:02 13° 3° (N) 18:36:10 435.350 FM
XW-2A 21 Nov 18:32:28 18:35:38 45° 74° (ENE) 18:38:50 145.665 - 145.685
CUBEBUG 2 21 Nov 18:42:02 18:46:37 66° 259° (W) 18:51:04 437.445
AO-73 21 Nov 18:42:27 18:46:16 32° 71° (ENE) 18:50:02 145.935
FO-29 21 Nov 18:44:17 18:47:37 13° 83° (E) 18:50:53 435.910
Oscar 11 21 Nov 18:58:18 19:02:07 32° 70° (ENE) 19:05:58 .
CUTE 1.7 + AOD 2 21 Nov 19:19:24 19:21:53 15° 269° (W) 19:24:23 437.475
STARS 21 Nov 19:25:32 19:27:05 12° 300° (WNW) 19:28:38 437.465
ZACube-1 21 Nov 19:27:17 19:31:36 71° 258° (WSW) 19:35:51 437.345
UWE-3 21 Nov 19:38:45 19:42:36 28° 264° (W) 19:46:24 435.000/436.395/437.385
ISS 21 Nov 19:43:48 19:46:16 20° 134° (SE) 19:48:46 437.550
Max Valier Satellite 21 Nov 19:45:08 19:46:52 13° 65° (ENE) 19:48:36 145.860
SEEDS 21 Nov 19:50:01 19:51:29 12° 270° (W) 19:52:58 437.485
AAUSAT CUBESAT 2 21 Nov 19:53:05 19:56:22 23° 266° (W) 19:59:41 437.432
STRAND 1 21 Nov 20:07:53 20:12:43 43° 290° (WNW) 20:17:30 437.568
NO-84 21 Nov 20:09:14 20:12:38 23° 23° (NNE) 20:16:05 435.350 FM
RS-15 21 Nov 20:10:45 20:22:37 51° 316° (NW) 20:34:26 29.354- 29.394
DELFI C3 21 Nov 20:17:51 20:21:40 48° 73° (ENE) 20:25:31 145.870
AO-73 21 Nov 20:19:10 20:22:32 22° 266° (W) 20:25:51 145.935
FO-29 21 Nov 20:26:04 20:33:57 72° 102° (ESE) 20:41:19 435.910
nSIGHT-1 21 Nov 20:33:23 20:36:36 79° 142° (SE) 20:39:49 .
Oscar 11 21 Nov 20:34:55 20:38:17 22° 266° (W) 20:41:40 .
SO-50 21 Nov 20:55:17 20:59:22 36° 116° (ESE) 21:03:30 436.795
UNISAT 6 21 Nov 21:13:04 21:16:58 34° 97° (E) 21:20:51 437.425
EO-88 21 Nov 21:13:37 21:17:12 70° 257° (WSW) 21:20:50 145.990 - 145.960
O/OREOS (USA 219) 21 Nov 21:14:09 21:15:05 11° 48° (NE) 21:16:01 437.305
Max Valier Satellite 21 Nov 21:16:50 21:20:18 42° 261° (W) 21:23:48 145.860
TIGRISAT 21 Nov 21:17:15 21:21:10 34° 97° (E) 21:25:02 435.000
ISS 21 Nov 21:19:21 21:22:32 49° 330° (NNW) 21:25:45 437.550
LO-87 21 Nov 21:36:42 21:39:43 25° 70° (ENE) 21:42:42 145.935 - 145.965
NO-84 21 Nov 21:46:11 21:50:28 88° 226° (SW) 21:54:43 435.350 FM
ESTCUBE 1 21 Nov 21:51:28 21:55:26 32° 69° (ENE) 21:59:25 437.505/2401.250
DELFI C3 21 Nov 21:54:52 21:56:41 13° 269° (W) 21:58:29 145.870
PRISM 21 Nov 22:01:22 22:05:17 38° 98° (E) 22:09:10 437.425
AIST 2D 21 Nov 22:07:20 22:08:54 12° 92° (E) 22:10:27 435.315
nSIGHT-1 21 Nov 22:10:33 22:13:08 22° 342° (NNW) 22:15:43 .
FO-29 21 Nov 22:11:58 22:18:12 27° 301° (WNW) 22:24:13 435.910
RS-15 21 Nov 22:29:28 22:39:03 25° 348° (NNW) 22:48:25 29.354- 29.394
SO-50 21 Nov 22:36:01 22:39:52 28° 314° (NW) 22:43:47 436.795
POLYITAN 1 21 Nov 22:45:59 22:47:58 13° 91° (E) 22:49:57 437.675
UNISAT 6 21 Nov 22:50:16 22:53:29 21° 294° (WNW) 22:56:41 437.425
O/OREOS (USA 219) 21 Nov 22:50:42 22:55:16 82° 67° (ENE) 22:59:47 437.305
TIGRISAT 21 Nov 22:54:27 22:57:38 21° 294° (WNW) 23:00:48 435.000
ISS 21 Nov 22:57:19 22:59:35 17° 349° (N) 23:01:51 437.550
SPROUT 21 Nov 23:01:13 23:05:15 42° 72° (ENE) 23:09:19 437.525
QB50P2 21 Nov 23:08:04 23:11:37 26° 96° (E) 23:15:09 145.880/145.840
LO-87 21 Nov 23:10:21 23:13:04 20° 266° (W) 23:15:47 145.935 - 145.965
NO-84 21 Nov 23:25:21 23:27:14 13° 238° (WSW) 23:29:07 435.350 FM
ESTCUBE 1 21 Nov 23:28:36 23:32:14 24° 265° (W) 23:35:54 437.505/2401.250
UKube-1 21 Nov 23:37:09 23:37:30 10° 59° (ENE) 23:37:50 .
PRISM 21 Nov 23:37:21 23:40:15 19° 295° (WNW) 23:43:09 437.425
AIST 2D 21 Nov 23:38:55 23:42:13 38° 287° (WNW) 23:45:30 435.315
PCSat 21 Nov 23:43:25 23:48:44 61° 115° (ESE) 23:54:05 145.827
VELOX 1 21 Nov 23:44:47 23:49:13 83° 74° (ENE) 23:53:42 145.980
nSIGHT-1 21 Nov 23:48:18 23:50:14 15° 2° (N) 23:52:09 .
DUCHIFAT 1 21 Nov 23:56:07 00:00:16 63° 101° (E) 00:04:23 145.980
EO-79 22 Nov 00:04:21 00:08:33 79° 284° (WNW) 00:12:43 145.935-145.965
NANOSAT C BR1 22 Nov 00:07:05 00:11:18 83° 281° (WNW) 00:15:28 145.865
POLYITAN 1 22 Nov 00:19:58 00:24:03 52° 287° (WNW) 00:28:07 437.675
DX 1 22 Nov 00:28:05 00:32:21 56° 73° (ENE) 00:36:39 434.975-435.025
ISS 22 Nov 00:34:45 00:37:00 17° 10° (N) 00:39:14 437.550
SPROUT 22 Nov 00:38:30 00:41:19 17° 268° (W) 00:44:09 437.525
QB50P2 22 Nov 00:43:48 00:47:20 26° 292° (WNW) 00:50:50 145.880/145.840
50 SAT 22 Nov 00:44:11 00:47:25 78° 258° (WSW) 00:50:40 437.505
BUGSAT 1 22 Nov 00:45:52 00:49:50 53° 101° (E) 00:53:44 437.445
ITUPSAT 1 22 Nov 00:57:37 00:59:21 12° 59° (ENE) 01:01:05 437.325
MOZHAYETS 4 22 Nov 01:01:44 01:04:24 15° 63° (ENE) 01:07:03
